Location: Dehesa de la Cepeda
(40.6574°N, 4.3013°W)
Time: 12:20:01
(UTC+00:00)

X-37B - Visible Passes

Search period start: 23 September 2020 00:00
Search period end: 03 October 2020 00:00
Orbit: 386 x 387 km, 45.0° (Epoch: 18 September)

Date Brightness Start Highest point End Pass type
(mag) Time Alt. Az. Time Alt. Az. Time Alt. Az.
23 Sep 0.6 04:55:19 29° W 04:56:42 62° SSW 04:59:50 10° SE visible
24 Sep 2.7 03:59:51 25° ESE 03:59:51 25° ESE 04:01:19 10° ESE visible
24 Sep 2.3 05:32:09 10° W 05:34:29 19° SW 05:36:48 10° S visible
25 Sep 1.8 04:36:49 29° S 04:36:49 29° S 04:38:58 10° SE visible
30 Sep 2.9 19:28:38 10° SSW 19:29:30 15° S 19:29:30 15° S visible
01 Oct 2.9 18:31:56 10° SSE 18:32:41 11° SE 18:33:25 10° SE visible
01 Oct 3.2 20:05:41 10° SW 20:06:25 16° SW 20:06:25 16° SW visible
02 Oct 1.3 19:07:23 10° SW 19:10:19 35° SSE 19:10:54 32° ESE visible
